Location: Broekland
(52.3610°N, 6.2005°E)
Time: 16:21:54
(UTC+00:00)

Cosmos 2221 - Pass Details

Date: 19 May 2025
Orbit: 572 x 593 km, 82.5° (Epoch: 16 June)

Event Time Altitude Azimuth Distance (km) Brightness Sun altitude
Exits shadow 21:37:35 17° 187° (S) 1,516 4.1 -13.5°
Maximum altitude 21:40:49 85° 101° (E) 587 2.4 -13.7°
Drops below altitude 10° 21:45:01 10° 12° (NNE) 1,897 5.9 -14.0°
Sets 21:47:12 0° 12° (NNE) 2,799 6.8 -14.2°
